Simultaneous Nadir Overpasses (SNOs) Predictions

Prediction of SNOs between FY3D and AQUA Satellite Orbit:

Table of predicted SNOs for the next 14.0 days since TLE Epoch: 6/22/2024
Index Date (FY3D) Time (FY3D) Lat,Lon (FY3D) SZA (FY3D ) Date (AQUA) Time (AQUA) Lat,Lon (AQUA) SZA (AQUA ) Distance(km) Time Diff (sec)
1 06/24/2024 07:14:23 79.53, 51.89 56.78 06/24/2024 07:15:33 79.53, 51.84 56.76 1.02 70
2 06/24/2024 08:05:02 -79.33,-139.03 123.53 06/24/2024 08:04:49 -79.33,-139.05 123.53 0.53 13
3 06/26/2024 19:18:00 -79.51, 51.20 123.17 06/26/2024 19:19:07 -79.52, 51.09 123.17 2.27 67
4 06/26/2024 20:08:38 79.28,-139.52 56.49 06/26/2024 20:08:23 79.29,-139.64 56.51 2.51 15
5 06/29/2024 07:21:41 79.60, 49.56 57.10 06/29/2024 07:22:44 79.59, 49.70 57.06 2.88 63
6 06/29/2024 08:12:17 -79.30,-140.53 123.36 06/29/2024 08:11:58 -79.31,-140.61 123.34 1.86 19
7 07/01/2024 19:25:17 -79.52, 49.37 122.85 07/01/2024 19:26:16 -79.53, 49.33 122.86 0.83 59
8 07/01/2024 20:15:54 79.26,-141.08 56.76 07/01/2024 20:15:31 79.27,-141.20 56.78 2.63 23
9 07/04/2024 07:28:55 79.53, 48.51 57.37 07/04/2024 07:29:49 79.53, 48.47 57.36 1.02 54



Historial Predications of SNOs between FY3D and AQUA
